Weather History for Natchitoches, LA

Change the Weather History Date:

Friday, March 28, 2014

  Actual Average Record
Temperature  
Mean Temperature 72 °F -  
Max Temperature 85 °F 73 °F 87 °F (2012)
Min Temperature 61 °F 52 °F 30 °F (1942)
Cooling Degree Days 8    
Growing Degree Days 22 (Base 50)    
Moisture  
Dew Point 67 °F    
Average Humidity 85    
Maximum Humidity 100    
Minimum Humidity 57    
Precipitation  
Precipitation 0.33 in - - ()
Sea Level Pressure  
Sea Level Pressure 29.84 in    
Wind  
Wind Speed 4 mph (SE)    
Max Wind Speed 29 mph    
Max Gust Speed 45 mph    
Visibility 8 miles    
Events Fog , Rain , Thunderstorm    
Averages and records for this station are not official NWS values.
T = Trace of Precipitation, MM = Missing Value Source: NWS Daily Summary

Daily Weather History Graph

Daily Weather History Graph

Search for Another Location

Airport:

Trip Planner

Search our weather history database for the weather conditions in past years. The results will help you decide how hot, cold, wet, or windy it might be!

Date:

Astronomy

Mar. 28, 2014 Rise Set
Actual Time 7:05 AM CDT 7:29 PM CDT
Civil Twilight 6:41 AM CDT 7:53 PM CDT
Nautical Twilight 6:12 AM CDT 8:22 PM CDT
Astronomical Twilight 5:43 AM CDT 8:51 PM CDT
Moon 5:29 AM CDT (3/28) 5:32 PM CDT (3/28)
Length of Visible Light 13h 12m
Length of Day
12h 23m
Waning Crescent, 6% of the Moon is Illuminated
Mar 28
Waning Crescent
Mar 30
New
Apr 7
First Quarter
Apr 15
Full
Apr 22
Last Quarter

Hourly Weather History & Observations

Time (CDT) Temp. Heat Index Dew Point Humidity Pressure Visibility Wind Dir Wind Speed Gust Speed Precip Events Conditions
12:15 AM 63.7 °F - 63.5 °F 99% 29.86 in 7.0 mi Calm Calm - N/A   Overcast
12:35 AM 63.5 °F - 63.5 °F 100% 29.85 in 7.0 mi Calm Calm - N/A Rain Light Rain
12:55 AM 63.5 °F - 63.5 °F 100% 29.85 in 4.0 mi Calm Calm - 0.02 in Rain , Thunderstorm Thunderstorms and Rain
1:15 AM 63.5 °F - 63.5 °F 100% 29.84 in 3.0 mi Calm Calm - N/A Rain Light Rain
1:35 AM 63.7 °F - 63.7 °F 100% 29.83 in 4.0 mi SE 3.5 mph - N/A Thunderstorm Overcast
1:55 AM 64.0 °F - 64.0 °F 100% 29.83 in 7.0 mi NE 5.8 mph - N/A Thunderstorm Overcast
2:15 AM 64.4 °F - 64.4 °F 100% 29.82 in 5.0 mi SE 5.8 mph - N/A   Overcast
2:35 AM 64.4 °F - 64.4 °F 100% 29.81 in 5.0 mi SE 5.8 mph - N/A   Overcast
2:55 AM 64.8 °F - 64.8 °F 100% 29.81 in 7.0 mi SE 4.6 mph - N/A Thunderstorm Overcast
3:15 AM 65.3 °F - 65.3 °F 100% 29.80 in 7.0 mi SE 5.8 mph - N/A   Overcast
3:35 AM 65.7 °F - 65.7 °F 100% 29.80 in 10.0 mi NNE 5.8 mph - N/A   Overcast
3:55 AM 66.4 °F - 66.4 °F 100% 29.79 in 10.0 mi NNE 4.6 mph - N/A   Overcast
4:15 AM 66.4 °F - 66.4 °F 100% 29.79 in 10.0 mi Calm Calm - N/A   Overcast
4:35 AM 67.5 °F - 67.3 °F 99% 29.79 in 10.0 mi Calm Calm - N/A   Overcast
4:55 AM 68.4 °F - 67.8 °F 98% 29.80 in 10.0 mi Calm Calm - N/A   Overcast
5:15 AM 68.9 °F - 68.0 °F 97% 29.80 in 10.0 mi Calm Calm - N/A   Overcast
5:35 AM 69.1 °F - 68.0 °F 96% 29.81 in 7.0 mi WNW 3.5 mph - N/A   Overcast
5:55 AM 69.1 °F - 68.2 °F 97% 29.82 in 5.0 mi Calm Calm - N/A   Overcast
6:15 AM 68.7 °F - 68.0 °F 98% 29.83 in 5.0 mi Calm Calm - N/A   Drizzle
6:35 AM 68.2 °F - 67.6 °F 98% 29.84 in 4.0 mi ENE 3.5 mph - N/A Rain Rain
7:15 AM 66.6 °F - 66.4 °F 99% 29.86 in 3.0 mi ENE 4.6 mph - N/A   Overcast
7:35 AM 66.9 °F - 66.6 °F 99% 29.87 in 2.0 mi Calm Calm - 0.02 in Rain Heavy Rain
7:55 AM 66.6 °F - 66.4 °F 99% 29.88 in 1.8 mi Calm Calm - 0.02 in   Overcast
8:15 AM 67.1 °F - 67.1 °F 100% 29.88 in 0.8 mi Calm Calm - N/A   Overcast
8:35 AM 67.5 °F - 67.5 °F 100% 29.89 in 0.2 mi Calm Calm - N/A Fog Fog
8:55 AM 68.0 °F - 68.0 °F 100% 29.89 in 0.2 mi Calm Calm - N/A Fog Fog
9:15 AM 68.7 °F - 68.5 °F 99% 29.90 in 0.5 mi Calm Calm - N/A Fog Fog
9:35 AM 68.9 °F - 68.5 °F 99% 29.90 in 3.0 mi ENE 3.5 mph - N/A   Overcast
9:55 AM 69.3 °F - 68.9 °F 99% 29.91 in 5.0 mi Calm Calm - N/A   Overcast
10:15 AM 71.6 °F - 70.0 °F 95% 29.91 in 5.0 mi East 4.6 mph - N/A   Overcast
10:35 AM 72.5 °F - 70.2 °F 92% 29.91 in 7.0 mi East 3.5 mph - N/A   Overcast
10:55 AM 72.9 °F - 70.3 °F 92% 29.91 in 7.0 mi ESE 3.5 mph - N/A   Overcast
11:15 AM 74.7 °F - 70.2 °F 86% 29.90 in 10.0 mi Calm Calm - N/A   Overcast
11:35 AM 75.7 °F - 71.1 °F 85% 29.89 in 10.0 mi East 4.6 mph - N/A   Mostly Cloudy
11:55 AM 77.2 °F - 70.7 °F 80% 29.89 in 10.0 mi ENE 4.6 mph - N/A   Overcast
12:15 PM 77.7 °F - 70.0 °F 77% 29.88 in 10.0 mi East 4.6 mph - N/A   Mostly Cloudy
12:35 PM 79.9 °F - 71.2 °F 75% 29.87 in 10.0 mi ENE 8.1 mph - N/A   Scattered Clouds
12:55 PM 80.6 °F 84.1 °F 70.3 °F 71% 29.86 in 10.0 mi East 5.8 mph - N/A   Scattered Clouds
1:15 PM 80.2 °F 83.5 °F 70.0 °F 71% 29.86 in 10.0 mi Calm Calm - N/A   Scattered Clouds
1:35 PM 79.0 °F - 68.5 °F 70% 29.86 in 10.0 mi Calm Calm - N/A   Overcast
1:55 PM 81.9 °F 85.8 °F 70.2 °F 68% 29.85 in 10.0 mi SSE 3.5 mph - N/A   Scattered Clouds
2:15 PM 80.1 °F 83.2 °F 70.0 °F 71% 29.83 in 10.0 mi ESE 4.6 mph - N/A   Mostly Cloudy
2:35 PM 81.7 °F 85.4 °F 70.0 °F 68% 29.82 in 10.0 mi SE 6.9 mph - N/A   Mostly Cloudy
2:55 PM 82.6 °F 86.1 °F 69.4 °F 64% 29.81 in 10.0 mi SSE 3.5 mph - N/A   Mostly Cloudy
3:15 PM 81.3 °F 84.6 °F 69.6 °F 67% 29.80 in 10.0 mi ESE 5.8 mph - N/A   Scattered Clouds
3:35 PM 82.6 °F 86.1 °F 69.4 °F 64% 29.79 in 10.0 mi SE 4.6 mph - N/A   Scattered Clouds
3:55 PM 81.0 °F 84.2 °F 69.4 °F 68% 29.79 in 10.0 mi South 5.8 mph - N/A   Scattered Clouds
4:15 PM 84.2 °F 88.1 °F 69.6 °F 61% 29.78 in 10.0 mi ESE 4.6 mph - N/A   Scattered Clouds
4:35 PM 83.3 °F 86.9 °F 69.1 °F 62% 29.77 in 10.0 mi SE 6.9 mph - N/A   Mostly Cloudy
4:55 PM 81.9 °F 84.6 °F 67.8 °F 62% 29.76 in 10.0 mi SE 9.2 mph - N/A   Scattered Clouds
5:15 PM 84.9 °F 88.2 °F 68.0 °F 57% 29.76 in 10.0 mi SSE 6.9 mph - N/A   Mostly Cloudy
5:35 PM 84.6 °F 87.6 °F 67.6 °F 57% 29.76 in 10.0 mi South 8.1 mph - N/A   Scattered Clouds
5:55 PM 83.5 °F 86.0 °F 66.6 °F 57% 29.74 in 10.0 mi South 9.2 mph - N/A   Scattered Clouds
6:15 PM 80.8 °F 83.2 °F 66.9 °F 63% 29.73 in 10.0 mi SSE 11.5 mph - N/A   Clear
6:35 PM 78.8 °F - 65.8 °F 64% 29.73 in 10.0 mi South 6.9 mph - N/A   Clear
6:55 PM 79.3 °F - 65.7 °F 63% 29.74 in 10.0 mi South 6.9 mph - N/A   Clear
7:15 PM 78.3 °F - 66.2 °F 66% 29.74 in 10.0 mi South 5.8 mph - N/A   Clear
7:35 PM 77.0 °F - 66.6 °F 70% 29.74 in 10.0 mi South 3.5 mph - N/A   Clear
7:55 PM 74.5 °F - 66.6 °F 76% 29.75 in 10.0 mi South 3.5 mph - N/A   Clear
8:15 PM 75.2 °F - 67.1 °F 76% 29.76 in 10.0 mi West 4.6 mph - N/A   Scattered Clouds
8:35 PM 76.1 °F - 67.6 °F 75% 29.77 in 10.0 mi SSW 8.1 mph - N/A Thunderstorm Mostly Cloudy
8:55 PM 66.4 °F - 60.3 °F 81% 29.87 in 4.0 mi West 28.8 mph 44.9 mph 0.09 in Rain , Thunderstorm Heavy Thunderstorms and Rain
9:15 PM 62.8 °F - 60.1 °F 91% 29.90 in 7.0 mi West 20.7 mph 38.0 mph 0.03 in Rain , Thunderstorm Light Thunderstorms and Rain
9:35 PM 62.2 °F - 60.6 °F 94% 29.91 in 5.0 mi WNW 23.0 mph 38.0 mph 0.06 in Rain , Thunderstorm Thunderstorms and Rain
9:55 PM 63.0 °F - 60.6 °F 92% 29.93 in 5.0 mi WNW 21.9 mph 42.6 mph 0.14 in Rain , Thunderstorm Thunderstorms and Rain
10:15 PM 63.0 °F - 60.8 °F 93% 29.91 in 7.0 mi North 10.4 mph 18.4 mph 0.04 in Rain , Thunderstorm Thunderstorms and Rain
10:35 PM 62.6 °F - 60.6 °F 93% 29.93 in 10.0 mi NW 9.2 mph - 0.05 in Rain Light Rain
10:55 PM 62.6 °F - 60.6 °F 93% 29.93 in 7.0 mi NNE 8.1 mph - 0.06 in Rain Rain
11:15 PM 61.7 °F - 60.1 °F 94% 29.88 in 10.0 mi East 8.1 mph - N/A Rain Light Rain
11:35 PM 61.7 °F - 59.5 °F 93% 29.92 in 10.0 mi Calm Calm - N/A   Clear
11:55 PM 61.2 °F - 59.5 °F 94% 29.94 in 10.0 mi Calm Calm - N/A   Clear